This demonstration page uses our WeatherBlox Daily Observations layout. Learn more.

Left ArrowRight Arrow

Hourly Observations for April 10, 2021

Temp ( °F °C ) Dew Point ( °F °C ) Humidity (%) Winds ( mph kmh ) Pressure ( in mb ) Visibility ( mi km ) Precip ( " mm )
12:03 am 00:03 Mostly Cloudy 64 17.8 58 14.4 81 81 VRB 5 7 29.93 1013 10 16 0.00 0.00
12:53 am 00:53 Cloudy 64 17.8 58 14.4 81 81 Calm 29.92 1013 10 16 0.00 0.00
1:53 am 01:53 Cloudy 65 18.3 59 15 81 81 ESE 5 7 29.91 1013 10 16 0.00 0.00
2:53 am 02:53 Cloudy 65 18.3 60 15.6 84 84 SE 6 9 29.88 1012 10 16 0.00 0.00
3:50 am 03:50 Cloudy 64 18 61 16 88 88 SSE 7 11 29.85 1011 10 16 0.00 0.00
3:53 am 03:53 Cloudy 64 17.8 60 15.6 87 87 SSE 9 15 29.85 1011 10 16 0.00 0.00
4:22 am 04:22 Mostly Cloudy 64 17.8 60 15.6 87 87 ESE 5 7 29.86 1011 10 16 0.00 0.00
4:51 am 04:51 Cloudy 64 18 61 16 88 88 ESE 5 7 29.83 1010 10 16 0.00 0.00
4:53 am 04:53 Cloudy 64 17.8 60 15.6 87 87 ESE 5 7 29.83 1010 10 16 0.00 0.00
5:23 am 05:23 Cloudy 64 17.8 60 15.6 87 87 E 6 9 29.83 1010 10 16 0.00 0.00
5:53 am 05:53 Cloudy 64 17.8 60 15.6 87 87 ESE 6 9 29.83 1010 10 16 0.00 0.00
6:53 am 06:53 Mostly Cloudy 64 17.8 59 15 84 84 SE 7 11 29.82 1010 10 16 0.00 0.00
7:17 am 07:17 Mostly Cloudy 63 17.2 59 15 87 87 ESE 7 11 29.83 1010 10 16 0.00 0.00
7:53 am 07:53 Partly Cloudy 63 17.2 58 14.4 84 84 ESE 5 7 29.79 1009 10 16 0.00 0.00
8:53 am 08:53 Cloudy with Light Rain 63 17.2 58 14.4 84 84 SSE 7 11 29.78 1009 10 16 0.00 0.00
9:53 am 09:53 Cloudy 64 17.8 57 13.9 78 78 S 7 11 29.78 1009 10 16 0.00 0.00
10:29 am 10:29 Cloudy with Light Rain 63 17.2 59 15 87 87 SSE 8 13 29.79 1009 10 16 0.00 0.00
10:53 am 10:53 Cloudy with Rain 63 17.2 59 15 87 87 SSE 9 15 29.80 1009 4 6 0.01 0.25
10:59 am 10:59 Cloudy with Heavy Rain 62 16.7 60 15.6 93 93 SSE 8 13 29.80 1009 2 3 0.00 0.00
11:10 am 11:10 Cloudy with Rain 62 16.7 60 15.6 93 93 SE 8 13 29.78 1008 3 5 0.00 0.00
11:20 am 11:20 Cloudy with Rain 62 16.7 60 15.6 93 93 SSE 12 19 29.79 1009 4 6 0.00 0.00
11:53 am 11:53 Cloudy with Light Rain 63 17.2 61 16.1 93 93 SE 9 15 29.72 1007 10 16 0.00 0.00
12:53 pm 12:53 Cloudy with Light Rain 63 17.2 60 15.6 90 90 S 13 20 29.70 1006 10 16 0.02 0.51
1:53 pm 13:53 Cloudy 64 17.8 60 15.6 87 87 S 8 13 29.71 1006 10 16 0.01 0.25
2:10 pm 14:10 Cloudy with Light Rain 64 17.8 61 16.1 90 90 SSW 9 15 29.73 1007 8 13 0.01 0.25
2:53 pm 14:53 Cloudy with Light Rain 64 17.8 62 16.7 93 93 SW 6 9 29.70 1006 7 11 0.01 0.25
3:53 pm 15:53 Cloudy with Light Rain 66 18.9 62 16.7 87 87 WSW 9 15 29.67 1005 10 16 0.01 0.25
4:53 pm 16:53 Mostly Cloudy 68 20 60 15.6 76 76 SW 12 19 29.65 1004 10 16 0.02 0.51
5:53 pm 17:53 Partly Cloudy 70 21.1 59 15 68 68 VRB 7 11 29.63 1003 10 16 0.00 0.00
6:53 pm 18:53 Partly Cloudy 70 21.1 58 14.4 66 66 SW 7 11 29.62 1003 10 16 0.00 0.00
7:53 pm 19:53 Mostly Cloudy 69 20.6 59 15 70 70 S 7 11 29.64 1004 10 16 0.00 0.00
8:53 pm 20:53 Cloudy 66 18.9 59 15 78 78 Calm 29.65 1004 10 16 0.00 0.00
9:53 pm 21:53 Mostly Clear 64 17.8 59 15 84 84 SW 5 7 29.67 1005 10 16 0.00 0.00
10:53 pm 22:53 Clear 63 17.2 59 15 87 87 SW 5 7 29.68 1005 10 16 0.00 0.00
11:53 pm 23:53 Mostly Clear 62 16.7 58 14.4 86 86 SW 3 6 29.68 1005 10 16 0.00 0.00

Powered by AerisWeather